CW0630 Weather Reports


time (UTC)temp
F
wind
direction
speed
knots
gust
knots
rain 1hr
in
rain 24hr
in
rain mn
in
humidity
%
barometer
mb
20260507220850 54 244 0.0 1.7 0.00 0.08 0.08 87 1009.8
20260507210916 54 135 2.6 2.6 0.05 0.08 0.08 89 1009.6
20260507200921 55 46 0.9 0.9 0.00 0.03 0.03 82 1010.0
20260507190846 56 49 2.6 2.6 0.00 0.04 0.03 76 1010.4
20260507180845 56 60 0.0 1.7 0.00 0.04 0.03 75 1010.5
20260507170858 56 30 1.7 3.5 0.00 0.04 0.03 78 1011.3
20260507160849 55 355 6.1 6.1 0.02 0.05 0.03 87 1011.9
20260507150855 56 5 9.6 9.6 0.00 0.03 0.01 81 1011.8
20260507140901 57 29 2.6 3.5 0.00 0.09 0.01 79 1011.9
20260507130907 57 15 3.5 5.2 0.00 0.09 0.01 83 1011.7
20260507120847 57 360 4.3 5.2 0.00 0.09 0.01 84 1011.3
20260507110901 56 12 3.5 5.2 0.00 0.09 0.01 82 1011.3
20260507100859 57 360 3.5 6.1 0.00 0.09 0.01 83 1010.5
20260507090853 58 53 4.3 4.3 0.01 0.09 0.01 89 1010.5
20260507080901 62 24 11.3 11.3 0.00 0.08 0.00 89 1010.3
20260507070842 67 323 1.7 1.7 0.00 0.08 0.00 89 1009.5
20260507060907 68 194 2.6 2.6 0.00 0.08 0.00 85 1008.3
20260507050855 68 205 3.5 3.5 0.00 0.08 0.00 85 1009.3
20260507040852 68 212 3.5 3.5 0.00 0.08 0.00 85 1009.3
20260507030855 68 192 3.5 5.2 0.00 0.08 0.08 84 1009.4
20260507020858 68 200 5.2 5.2 0.00 0.08 0.08 84 1009.8
20260507000918 69 211 1.7 4.3 0.00 0.08 0.08 81 1009.8
20260506230858 70 188 5.2 5.2 0.00 0.08 0.08 77 1009.3